Regional Weather Roundup
Issued by NWS Huntsville, AL

Home | Current Version | Previous Version | Text Only | Print | Product List | Glossary On
Versions: 1 2 3 4 5 6 7 8 9 10 11 12 13 14 15 16 17 18 19 20 21 22 23 24 25 26 27 28 29 30 31 32 33 34 35 36 37 38 39 40 41 42 43 44 45 46 47 48 49 50
000
ASUS44 KHUN 130924
RWRHUN

WEATHER ROUNDUP FOR THE TENNESSEE VALLEY
NATIONAL WEATHER SERVICE HUNTSVILLE AL
400 AM CDT SUN JUL 13 2014

ALZ001>004-131000-
NORTHWEST ALABAMA

CITY           SKY/WX    TMP DP  RH WIND       PRES   REMARKS
COURTLAND HCN    N/A     73 N/A N/A CALM        N/A
RUSSELLVILLE     N/A     70 N/A N/A MISG        N/A
SHOALS AIRPORT CLEAR     72  69  90 CALM      30.07S
SHOALS TVA RES   N/A     72 N/A N/A MISG        N/A
$$

ALZ005>007-016-131000-
NORTH CENTRAL ALABAMA

CITY           SKY/WX    TMP DP  RH WIND       PRES   REMARKS
CULLMAN AG STN   N/A     70 N/A N/A CALM        N/A
DECATUR AP     CLEAR     71  70  96 CALM      30.07F FOG
HUNTSVILLE AP  CLEAR     76  72  87 CALM      30.07F
MERIDIANVILLE  CLEAR     70  66  88 CALM      30.07F FOG
VINEMONT AP    FAIR      69  69  98 CALM      30.11S
$$

ALZ008>010-131000-
NORTHEAST ALABAMA

CITY           SKY/WX    TMP DP  RH WIND       PRES   REMARKS
ALBERTVILLE    PTCLDY    70  70 100 CALM      30.09S
CROSSVILLE       N/A     68 N/A N/A CALM        N/A
FORT PAYNE     CLEAR    N/A N/A N/A CALM      30.10S HAZE
SCOTTSBORO AP  FOG       72  72 100 CALM      30.09S VSB 1/4
SCOTTSBORO HCN   N/A     70 N/A N/A MISG        N/A
VALLEY HEAD      N/A     68 N/A N/A MISG        N/A
$$

TNZ076-096-097-131000-
SOUTHEASTERN MIDDLE TENNESSEE

CITY           SKY/WX    TMP DP  RH WIND       PRES   REMARKS
FAYETTEVILLE   CLEAR     72  70  94 S5        30.08F
TULLAHOMA      CLEAR     72  68  88 CALM      30.10S
WINCHESTER     CLEAR     72  70  94 CALM      30.09F
$$

...SURROUNDING SITES...

CITY           SKY/WX    TMP DP  RH WIND       PRES   REMARKS
ATLANTA        CLEAR     74  68  81 CALM      30.13S
ANNISTON       CLEAR     73  70  90 CALM      30.10F
BIRMINGHAM     CLEAR     74  70  87 CALM      30.10S
CHATTANOOGA    CLEAR     74  70  87 CALM      30.10S
CORINTH        FAIR      70  68  94 S3        30.05R FOG
DALTON         PTCLDY    70  70 100 CALM      30.10F
GADSDEN        CLEAR     70  66  88 CALM      30.09S
GOLDEN TRNGL   CLEAR     73  70  88 CALM      30.05S
HALEYVILLE     FAIR      70  70 100 CALM      30.11S FOG
JACKSON TN     CLEAR     70  67  90 CALM      30.04F
LEWISBURG      FAIR      69  66  90 CALM      30.06F
MEMPHIS        PTCLDY    76  70  82 CALM      30.03F
MURFREESBORO   FAIR      74  68  81 CALM      30.06F
NASHVILLE      PTCLDY    72  68  87 S6        30.05F
OXFORD MS      FAIR      70  68  94 CALM      30.07R
ROME           PTCLDY    71  70  96 CALM      30.10F FOG
SAVANNAH       CLEAR     70  70 100 CALM      30.06S
TUPELO         CLEAR     74  71  91 CALM      30.05S
TUSCALOOSA     CLEAR     74  73  97 CALM      30.06F FOG
$$

...GULF COAST WEATHER...

CITY           SKY/WX    TMP DP  RH WIND       PRES   REMARKS
GULFPORT       CLEAR     78  73  84 CALM      30.04S
PASCAGOULA     PTCLDY    73  72  96 N5        30.06R FOG
MOBILE         CLEAR     76  76 100 S5        30.06S
GULF SHORES    PTSUNNY   74  73  98 NE5       30.06R
PENSACOLA      CLEAR     73  71  93 CALM      30.05S
DESTIN         CLEAR     78  76  93 E3        30.07S
PANAMA CITY    CLEAR     75  75 100 NE5       30.08S
APPALACHICOLA  MOCLDY    77  73  87 NE6       30.07F
$$




USA.gov is the U.S. government's official web portal to all federal, state and local government web resources and services.